Weather History for Rockingham, NC

Change the Weather History Date:

Sunday, February 10, 2013

  Actual Average (KHFF) Record (KHFF)
Temperature  
Mean Temperature 46 °F -  
Max Temperature 59 °F 55 °F 71 °F (1999)
Min Temperature 34 °F 33 °F 21 °F (2006)
Degree Days  
Heating Degree Days 19    
Moisture  
Dew Point 31 °F    
Average Humidity 54    
Maximum Humidity 94    
Minimum Humidity 28    
Precipitation  
Precipitation 0.07 in - - ()
Sea Level Pressure  
Sea Level Pressure 30.35 in    
Wind  
Wind Speed 5 mph (ESE)    
Max Wind Speed 14 mph    
Max Gust Speed 18 mph    
Visibility 10 miles    
Events Rain    
Averages and records for this station are not official NWS values.
T = Trace of Precipitation, MM = Missing Value Source: NWS Daily Summary

Daily Weather History Graph

Daily Weather History Graph

Search for Another Location

Airport:

Trip Planner

Search our weather history database for the weather conditions in past years. The results will help you decide how hot, cold, wet, or windy it might be!

Date:

Astronomy

Feb. 10, 2013 Rise Set
Actual Time 7:09 AM EST 5:57 PM EST
Civil Twilight 6:43 AM EST 6:23 PM EST
Nautical Twilight 6:13 AM EST 6:53 PM EST
Astronomical Twilight 5:44 AM EST 7:22 PM EST
Moon 7:01 AM EST (2/10) 6:42 PM EST (2/10)
Length of Visible Light 11h 39m
Length of Day
10h 47m
Waxing Crescent, 0% of the Moon is Illuminated
Feb 10
Waxing Crescent
Feb 17
First Quarter
Feb 25
Full
Mar 4
Last Quarter
Mar 11
New

Hourly Weather History & Observations

Time (EST) Temp. Windchill Dew Point Humidity Pressure Visibility Wind Dir Wind Speed Gust Speed Precip Events Conditions
12:15 AM 38.7 °F 36.3 °F 23.2 °F 54% 30.35 in 10.0 mi East 3.5 mph - N/A   Clear
12:35 AM 36.1 °F 33.5 °F 24.6 °F 63% 30.35 in 10.0 mi ENE 3.5 mph - N/A   Clear
12:55 AM 37.4 °F 34.9 °F 22.8 °F 56% 30.35 in 10.0 mi ENE 3.5 mph - N/A   Clear
1:15 AM 37.2 °F 33.6 °F 22.6 °F 56% 30.36 in 10.0 mi ENE 4.6 mph - N/A   Clear
1:35 AM 36.7 °F 34.1 °F 22.6 °F 57% 30.36 in 10.0 mi East 3.5 mph - N/A   Clear
1:55 AM 36.5 °F 32.7 °F 23.2 °F 59% 30.36 in 10.0 mi East 4.6 mph - N/A   Clear
2:15 AM 36.9 °F 34.3 °F 22.8 °F 57% 30.37 in 10.0 mi East 3.5 mph - N/A   Clear
2:35 AM 36.1 °F 33.5 °F 22.6 °F 58% 30.37 in 10.0 mi East 3.5 mph - N/A   Clear
2:55 AM 36.1 °F 32.3 °F 22.6 °F 58% 30.37 in 10.0 mi East 4.6 mph - N/A   Clear
3:35 AM 38.5 °F 34.1 °F 22.1 °F 52% 30.37 in 10.0 mi East 5.8 mph - N/A   Clear
3:55 AM 38.5 °F 35.0 °F 21.4 °F 50% 30.37 in 10.0 mi East 4.6 mph - N/A   Clear
4:15 AM 37.4 °F 33.8 °F 21.2 °F 52% 30.37 in 10.0 mi East 4.6 mph - N/A   Clear
4:35 AM 36.9 °F 34.3 °F 21.2 °F 53% 30.37 in 10.0 mi East 3.5 mph - N/A   Clear
4:55 AM 35.2 °F 32.4 °F 21.7 °F 58% 30.37 in 10.0 mi East 3.5 mph - N/A   Clear
5:15 AM 35.1 °F - 21.4 °F 57% 30.38 in 10.0 mi Calm Calm - N/A   Clear
5:35 AM 35.1 °F 32.2 °F 23.2 °F 62% 30.38 in 10.0 mi East 3.5 mph - N/A   Clear
5:55 AM 36.7 °F - 22.5 °F 56% 30.38 in 10.0 mi Calm Calm - N/A   Clear
6:15 AM 35.1 °F - 25.7 °F 69% 30.39 in 10.0 mi Calm Calm - N/A   Clear
6:35 AM 34.2 °F - 25.5 °F 71% 30.40 in 10.0 mi Calm Calm - N/A   Clear
7:15 AM 34.0 °F - 25.3 °F 71% 30.41 in 10.0 mi Calm Calm - N/A   Clear
7:35 AM 34.9 °F 32.0 °F 24.4 °F 66% 30.42 in 10.0 mi ENE 3.5 mph - N/A   Clear
7:55 AM 36.0 °F 33.3 °F 24.3 °F 63% 30.42 in 10.0 mi ENE 3.5 mph - N/A   Clear
8:15 AM 37.0 °F - 24.1 °F 59% 30.44 in 10.0 mi Calm Calm - N/A   Clear
8:35 AM 37.9 °F 35.5 °F 25.0 °F 60% 30.46 in 10.0 mi NE 3.5 mph - N/A   Clear
8:55 AM 38.7 °F - 24.4 °F 57% 30.46 in 10.0 mi Calm Calm - N/A   Clear
9:15 AM 41.2 °F 38.2 °F 24.4 °F 51% 30.46 in 10.0 mi SE 4.6 mph - N/A   Clear
9:35 AM 42.8 °F 38.0 °F 22.3 °F 44% 30.45 in 10.0 mi East 8.1 mph - N/A   Clear
9:55 AM 44.6 °F 39.7 °F 21.7 °F 40% 30.44 in 10.0 mi East 9.2 mph - N/A   Clear
10:15 AM 45.9 °F 42.3 °F 21.4 °F 38% 30.45 in 10.0 mi ESE 6.9 mph - N/A   Clear
10:35 AM 47.8 °F - 21.0 °F 35% 30.45 in 10.0 mi SE 8.1 mph - N/A   Clear
10:55 AM 48.7 °F - 20.5 °F 33% 30.46 in 10.0 mi SSE 6.9 mph - N/A   Clear
11:15 AM 50.2 °F - 19.4 °F 30% 30.46 in 10.0 mi SSE 9.2 mph - N/A   Clear
11:35 AM 50.9 °F - 18.7 °F 28% 30.45 in 10.0 mi SSE 8.1 mph - N/A   Clear
11:55 AM 51.8 °F - 19.0 °F 28% 30.45 in 10.0 mi SE 8.1 mph - N/A   Clear
12:15 PM 52.9 °F - 21.9 °F 30% 30.43 in 10.0 mi SSE 9.2 mph - N/A   Clear
12:35 PM 53.4 °F - 23.0 °F 31% 30.41 in 10.0 mi ESE 8.1 mph - N/A   Clear
12:55 PM 54.1 °F - 24.4 °F 32% 30.39 in 10.0 mi SE 9.2 mph - N/A   Clear
1:15 PM 54.7 °F - 24.6 °F 31% 30.37 in 10.0 mi SE 6.9 mph - N/A   Clear
1:35 PM 55.9 °F - 25.7 °F 31% 30.37 in 10.0 mi South 5.8 mph - N/A   Clear
1:55 PM 57.4 °F - 29.1 °F 34% 30.37 in 10.0 mi SSE 10.4 mph - N/A   Clear
2:15 PM 57.6 °F - 31.5 °F 37% 30.35 in 10.0 mi SSE 4.6 mph 9.2 mph N/A   Clear
2:35 PM 58.1 °F - 33.1 °F 39% 30.33 in 10.0 mi SE 11.5 mph - N/A   Clear
2:55 PM 58.3 °F - 34.0 °F 40% 30.31 in 10.0 mi SE 10.4 mph - N/A   Clear
3:15 PM 58.8 °F - 34.7 °F 40% 30.31 in 10.0 mi SSE 6.9 mph - N/A   Clear
3:35 PM 58.6 °F - 35.8 °F 42% 30.30 in 10.0 mi ESE 10.4 mph - N/A   Clear
3:55 PM 58.3 °F - 36.5 °F 44% 30.31 in 10.0 mi SE 9.2 mph - N/A   Clear
4:15 PM 57.9 °F - 36.9 °F 45% 30.30 in 10.0 mi SE 9.2 mph - N/A   Scattered Clouds
4:35 PM 57.4 °F - 37.2 °F 47% 30.30 in 10.0 mi ESE 8.1 mph - N/A   Overcast
4:55 PM 57.6 °F - 38.3 °F 49% 30.29 in 10.0 mi SE 5.8 mph - N/A   Overcast
5:15 PM 57.6 °F - 38.7 °F 49% 30.29 in 10.0 mi SE 5.8 mph - N/A   Overcast
5:35 PM 57.2 °F - 40.6 °F 54% 30.28 in 10.0 mi ESE 4.6 mph - N/A   Overcast
5:55 PM 55.9 °F - 40.1 °F 55% 30.26 in 10.0 mi East 5.8 mph - N/A   Mostly Cloudy
6:15 PM 55.6 °F - 40.3 °F 56% 30.27 in 10.0 mi ESE 4.6 mph - N/A   Mostly Cloudy
6:35 PM 55.4 °F - 41.0 °F 58% 30.26 in 10.0 mi ESE 6.9 mph - N/A   Overcast
6:55 PM 55.6 °F - 41.4 °F 59% 30.27 in 10.0 mi ESE 5.8 mph - N/A   Overcast
7:15 PM 55.6 °F - 41.9 °F 60% 30.26 in 10.0 mi ESE 8.1 mph - N/A   Overcast
7:35 PM 55.4 °F - 43.0 °F 63% 30.26 in 10.0 mi SE 4.6 mph - N/A   Overcast
7:55 PM 55.4 °F - 43.0 °F 63% 30.25 in 10.0 mi ESE 4.6 mph - N/A   Overcast
8:15 PM 55.4 °F - 43.3 °F 64% 30.25 in 10.0 mi East 5.8 mph - N/A   Overcast
8:35 PM 55.4 °F - 44.2 °F 66% 30.26 in 10.0 mi ESE 4.6 mph - N/A   Overcast
8:55 PM 54.9 °F - 44.6 °F 68% 30.27 in 10.0 mi East 3.5 mph - N/A   Mostly Cloudy
9:15 PM 54.5 °F - 43.7 °F 67% 30.28 in 10.0 mi Calm Calm - N/A   Overcast
9:35 PM 54.1 °F - 43.0 °F 66% 30.29 in 10.0 mi Calm Calm - N/A   Overcast
9:55 PM 54.0 °F - 43.3 °F 67% 30.30 in 10.0 mi Calm Calm - N/A   Overcast
10:15 PM 53.2 °F - 43.9 °F 71% 30.30 in 10.0 mi Calm Calm - N/A Rain Light Rain
10:35 PM 51.4 °F - 46.6 °F 83% 30.30 in 7.0 mi East 3.5 mph - 0.01 in Rain Light Rain
10:55 PM 50.0 °F - 47.7 °F 92% 30.27 in 7.0 mi SE 9.2 mph - 0.03 in Rain Light Rain
11:15 PM 50.0 °F - 47.8 °F 92% 30.23 in 7.0 mi SE 13.8 mph - 0.02 in Rain Light Rain
11:35 PM 50.2 °F - 48.2 °F 93% 30.22 in 10.0 mi SE 12.7 mph 18.4 mph 0.04 in Rain Light Rain
11:55 PM 50.2 °F - 48.4 °F 94% 30.21 in 10.0 mi SE 10.4 mph - 0.04 in   Drizzle